User: anonymous   Login
Location: Ash Swamp
(41.5170°N, 74.6157°W)
Time: 21:00:25
(UTC+00:00)
Language:

BREEZE-M DEB (TANK) - Orbit

View from above orbital plane
View from above orbital plane
View from above satellite
View from above satellite

Ground track
Ground track

The orbit data is extracted from the following two-line orbital elements,

1 37604U 11021C   20272.06224252  .00002223  00000-0  44199-3 0  9990
2 37604  49.2139 156.1149 6026948 120.8627 311.7694  4.00052594134264
Epoch (UTC): 28 September 2020 01:29:37
Eccentricity: 0.6026948
inclination: 49.2139°
perigee height: 281 km
apogee height: 20486 km
right ascension of ascending node: 156.1149°
argument of perigee: 120.8627°
revolutions per day: 4.00052594
mean anomaly at epoch: 311.7694°
orbit number at epoch: 13426

The dashed part of the orbit path shows where the satellite is in the earth's shadow,  

DLR